Location: Baia Mare
(47.6567°N, 23.5850°E)
Time: 05:59:08
(UTC+02:00)

ISS - Pass Details

Date: 28 February 2018
Orbit: 402 x 407 km, 51.6° (Epoch: 24 February)

Event Time Altitude Azimuth Distance (km) Brightness Sun altitude
Exits shadow 05:41:10 - 193° (SSW) 1,790 -0.7 -15.5°
Reaches altitude 10° 05:42:13 10° 183° (S) 1,455 -1.1 -15.3°
Maximum altitude 05:44:31 18° 138° (SE) 1,075 -1.2 -14.9°
Drops below altitude 10° 05:46:48 10° 93° (E) 1,460 0.4 -14.6°
Sets 05:49:19 0° 74° (ENE) 2,323 1.7 -14.1°
